星链-30889 (STARLINK-30889 )

导读 | 豆包AI

STARLINK-30889是美国太空探索技术公司SpaceX星链(Starlink)项目的卫星,于2023年11月18日发射升空,归属于美国SpaceX公司。 星链项目旨在通过近地轨道卫星群,为全球提供高速互联网接入服务,可覆盖偏远地区、荒漠、海洋等网络盲区,为用户提供宽带连接支持。STARLINK-30889加入后,进一步扩展了星链星座的服务覆盖范围和网络容量,助力星链实现全球互联的战略目标。

Basic Information
目录编号:
58368
目录名称:
STARLINK-30889
国际标识:
2023-177T
轨道中心:
EARTH
卫星名称:
星链-30889
卫星全名:
星链-30889 (STARLINK-30889 )
卫星状态:
在轨 (已飞行894 天)
发射日期:
2023-11-18 UTC
国别 :
美国 (US)
星等 :
--
Orbit Information
数据来源 国际轨道数据 AOE轨道数据
星历时间 2026-04-30T20:43:26+0800
8小时前
查看轨道信息
2026-04-27T17:00:00+0800
3天前
查看轨道信息
半长轴 6861.189km 6861.174km
偏心率 0.0000743 0.0001423
轨道倾角 43.006° 43.006°
近地点辐角 276.121° 274.589°
升交点赤经 58.011° 75.833°
平近点角 83.956° 354.095°
近地点 482.542km 482.06km
远地点 483.562km 484.014km
周期 94.267分钟 94.266分钟
每日圈数 15.275793 15.275842
Detailed Information
固有亮度:
5
最大亮度:
0.3
卫星平台:
Starlink v2.0 mini
覆盖范围:
全球
运营商:
太空探索技术公司
运营商所在国:
美国
制造商(研发单位):
太空探索技术公司
制造商所在国:
美国
使用方式:
暂无
Satellite Introduction
星链(Starlink)计划是由太空探索技术公司(SpaceX)提出的一个巨型低轨卫星互联网星座项目,计划在2019年至2024年间在太空搭建由约1.2万颗卫星组成的“星链”网络,其中1584颗将部署在地球上空550千米处的近地轨道,并从2020年开始工作。该卫星仍在工作。
2D Orbit Map
3D Orbit Map
Orbit Altitude Analysis Chart
Orbit Inclination Analysis Chart
Orbit Comprehensive Analysis Chart
View Comprehensive Chart